When you browse on this site, cookies collect data to enhance your experience and personalize the content and advertising you see.
Visit our Privacy Policy to learn more. By continuing to use the site, you agree to this use of cookies and data.
  • Em Portugal
  • Lista de países
  • Para 7 dias
  • Temperatura da água
  • Mapa do tempo
  • Widgets de tempo
  • user-avatar
    Iniciar Sessão

    Previsão horária em Ilebo

    Hoje, 27 Maio, Quarta-feira

    Tempo Temperatura Precipitação Vento Pressão Humidade
    00:00 +23°C° 0 mm 1 m/s 723 mmHg 95%
    01:00 +23°C° 0 mm 1 m/s 723 mmHg 94%
    02:00 +21°C° 0 mm 0 m/s 723 mmHg 94%
    03:00 +21°C° 0 mm 0 m/s 722 mmHg 94%
    04:00 +21°C° 0 mm 0 m/s 722 mmHg 94%
    05:00 +22°C° 0 mm 0 m/s 722 mmHg 93%
    06:00 +22°C° 0 mm 0 m/s 723 mmHg 92%
    07:00 +24°C° 0 mm 0 m/s 723 mmHg 89%
    08:00 +25°C° 0 mm 0 m/s 724 mmHg 83%
    09:00 +27°C° 0 mm 0 m/s 724 mmHg 77%
    10:00 +29°C° 0 mm 0 m/s 724 mmHg 71%
    11:00 +32°C° 0 mm 1 m/s 723 mmHg 67%
    12:00 +33°C° 0 mm 1 m/s 723 mmHg 63%
    13:00 +33°C° 0 mm 1 m/s 722 mmHg 59%
    14:00 +33°C° 0 mm 1 m/s 721 mmHg 62%
    15:00 +33°C° 0 mm 1 m/s 721 mmHg 65%
    16:00 +32°C° 0 mm 1 m/s 720 mmHg 68%
    17:00 +29°C° 0 mm 0 m/s 721 mmHg 72%
    18:00 +27°C° 0 mm 0 m/s 721 mmHg 75%
    19:00 +25°C° 0 mm 0 m/s 721 mmHg 79%
    20:00 +25°C° 0 mm 0 m/s 722 mmHg 80%
    21:00 +27°C° 0 mm 1 m/s 722 mmHg 81%
    22:00 +26°C° 0 mm 1 m/s 722 mmHg 82%
    23:00 +24°C° 0.1 mm 0 m/s 722 mmHg 85%

    Amanhã, 28 Maio, Quinta-feira

    Tempo Temperatura Precipitação Vento Pressão Humidade
    00:00 +23°C° 0.1 mm 0 m/s 722 mmHg 88%
    01:00 +23°C° 0.1 mm 0 m/s 722 mmHg 90%
    02:00 +23°C° 0.2 mm 0 m/s 722 mmHg 91%
    03:00 +23°C° 0.2 mm 0 m/s 721 mmHg 92%
    04:00 +23°C° 0.2 mm 0 m/s 721 mmHg 93%
    05:00 +23°C° 0.1 mm 0 m/s 722 mmHg 92%
    06:00 +26°C° 0.1 mm 1 m/s 722 mmHg 92%
    07:00 +26°C° 0.1 mm 1 m/s 723 mmHg 91%
    08:00 +28°C° 1.1 mm 1 m/s 723 mmHg 88%
    09:00 +29°C° 1.1 mm 1 m/s 723 mmHg 85%
    10:00 +31°C° 1.1 mm 1 m/s 723 mmHg 81%
    11:00 +31°C° 1.5 mm 1 m/s 722 mmHg 77%
    12:00 +32°C° 1.5 mm 1 m/s 722 mmHg 72%
    13:00 +32°C° 1.5 mm 1 m/s 722 mmHg 67%
    14:00 +32°C° 0.8 mm 1 m/s 721 mmHg 72%
    15:00 +31°C° 0.8 mm 1 m/s 721 mmHg 77%
    16:00 +30°C° 0.8 mm 1 m/s 720 mmHg 82%
    17:00 +29°C° 0.1 mm 1 m/s 720 mmHg 84%
    18:00 +27°C° 0.1 mm 1 m/s 721 mmHg 87%
    19:00 +26°C° 0.1 mm 1 m/s 721 mmHg 89%
    20:00 +26°C° 0 mm 1 m/s 722 mmHg 89%
    21:00 +26°C° 0 mm 1 m/s 722 mmHg 89%
    22:00 +24°C° 0 mm 0 m/s 722 mmHg 89%
    23:00 +23°C° 0.1 mm 0 m/s 722 mmHg 90%

    Depois de amanhã, 29 Maio, Sexta-feira

    Tempo Temperatura Precipitação Vento Pressão Humidade
    00:00 +23°C° 0.1 mm 0 m/s 722 mmHg 91%
    01:00 +23°C° 0.1 mm 0 m/s 722 mmHg 93%
    02:00 +23°C° 1 mm 0 m/s 722 mmHg 94%
    03:00 +25°C° 1 mm 1 m/s 722 mmHg 95%
    04:00 +24°C° 1 mm 1 m/s 722 mmHg 96%
    05:00 +24°C° 1.1 mm 2 m/s 722 mmHg 96%
    06:00 +25°C° 1.1 mm 2 m/s 723 mmHg 96%
    07:00 +25°C° 1.1 mm 2 m/s 724 mmHg 96%
    08:00 +25°C° 0.2 mm 2 m/s 724 mmHg 94%
    09:00 +25°C° 0.2 mm 2 m/s 724 mmHg 93%
    10:00 +25°C° 0.2 mm 2 m/s 723 mmHg 92%
    11:00 +27°C° 0 mm 1 m/s 723 mmHg 85%
    12:00 +28°C° 0 mm 1 m/s 722 mmHg 79%
    13:00 +30°C° 0 mm 1 m/s 722 mmHg 73%
    14:00 +30°C° 0 mm 1 m/s 721 mmHg 73%
    15:00 +30°C° 0 mm 1 m/s 721 mmHg 73%
    16:00 +30°C° 0 mm 1 m/s 720 mmHg 73%
    17:00 +29°C° 0 mm 1 m/s 721 mmHg 78%
    18:00 +27°C° 0 mm 1 m/s 721 mmHg 83%
    19:00 +26°C° 0 mm 1 m/s 721 mmHg 88%
    20:00 +25°C° 0.1 mm 1 m/s 721 mmHg 89%
    21:00 +23°C° 0.1 mm 0 m/s 722 mmHg 91%
    22:00 +23°C° 0.1 mm 0 m/s 722 mmHg 92%
    23:00 +22°C° 0.4 mm 0 m/s 722 mmHg 93%

    30 Maio, Sábado

    Tempo Temperatura Precipitação Vento Pressão Humidade
    00:00 +22°C° 0.4 mm 0 m/s 722 mmHg 94%
    01:00 +22°C° 0.4 mm 0 m/s 722 mmHg 95%
    02:00 +22°C° 0.1 mm 0 m/s 722 mmHg 96%
    03:00 +22°C° 0.1 mm 0 m/s 722 mmHg 96%
    04:00 +22°C° 0.1 mm 0 m/s 722 mmHg 96%
    05:00 +22°C° 0 mm 0 m/s 722 mmHg 95%
    06:00 +23°C° 0 mm 0 m/s 722 mmHg 93%
    07:00 +26°C° 0 mm 1 m/s 723 mmHg 92%
    08:00 +27°C° 0 mm 1 m/s 723 mmHg 86%
    09:00 +29°C° 0 mm 1 m/s 723 mmHg 81%
    10:00 +30°C° 0 mm 1 m/s 723 mmHg 75%
    11:00 +31°C° 0 mm 1 m/s 723 mmHg 70%
    12:00 +33°C° 0 mm 1 m/s 722 mmHg 66%
    13:00 +34°C° 0 mm 1 m/s 721 mmHg 61%
    14:00 +31°C° 0.9 mm 0 m/s 721 mmHg 67%
    15:00 +30°C° 0.9 mm 0 m/s 721 mmHg 72%
    16:00 +29°C° 0.9 mm 0 m/s 720 mmHg 78%
    17:00 +28°C° 0.6 mm 0 m/s 720 mmHg 82%
    18:00 +28°C° 0.6 mm 1 m/s 721 mmHg 86%
    19:00 +26°C° 0.6 mm 1 m/s 721 mmHg 90%
    20:00 +25°C° 0.7 mm 1 m/s 721 mmHg 92%
    21:00 +25°C° 0.7 mm 1 m/s 722 mmHg 93%
    22:00 +24°C° 0.7 mm 1 m/s 723 mmHg 95%
    23:00 +24°C° 1 mm 1 m/s 722 mmHg 95%

    31 Maio, Domingo

    Tempo Temperatura Precipitação Vento Pressão Humidade
    00:00 +24°C° 1 mm 1 m/s 722 mmHg 95%
    01:00 +24°C° 1 mm 1 m/s 722 mmHg 95%
    02:00 +24°C° 0.7 mm 1 m/s 722 mmHg 95%
    03:00 +23°C° 0.7 mm 1 m/s 722 mmHg 95%
    04:00 +23°C° 0.7 mm 1 m/s 722 mmHg 95%
    05:00 +22°C° 0 mm 0 m/s 722 mmHg 94%
    06:00 +23°C° 0 mm 0 m/s 723 mmHg 93%
    07:00 +23°C° 0 mm 0 m/s 723 mmHg 92%
    08:00 +25°C° 0 mm 0 m/s 723 mmHg 84%
    09:00 +29°C° 0 mm 1 m/s 723 mmHg 76%
    10:00 +31°C° 0 mm 1 m/s 724 mmHg 68%
    11:00 +32°C° 0 mm 1 m/s 723 mmHg 66%
    12:00 +34°C° 0 mm 2 m/s 722 mmHg 63%
    13:00 +34°C° 0 mm 2 m/s 721 mmHg 61%
    14:00 +33°C° 0.2 mm 1 m/s 721 mmHg 64%
    15:00 +33°C° 0.2 mm 1 m/s 721 mmHg 68%
    16:00 +32°C° 0.2 mm 1 m/s 720 mmHg 71%
    17:00 +31°C° 0.3 mm 1 m/s 720 mmHg 76%
    18:00 +29°C° 0.3 mm 1 m/s 721 mmHg 81%
    19:00 +27°C° 0.3 mm 1 m/s 721 mmHg 86%
    20:00 +26°C° 0 mm 1 m/s 721 mmHg 88%
    21:00 +26°C° 0 mm 1 m/s 722 mmHg 89%
    22:00 +26°C° 0 mm 1 m/s 722 mmHg 91%
    23:00 +25°C° 3.5 mm 1 m/s 722 mmHg 92%

    1 Junho, Segunda-feira

    Tempo Temperatura Precipitação Vento Pressão Humidade
    00:00 +25°C° 3.5 mm 2 m/s 722 mmHg 94%
    01:00 +25°C° 3.5 mm 2 m/s 722 mmHg 96%
    02:00 +24°C° 0.7 mm 2 m/s 722 mmHg 96%
    03:00 +24°C° 0.7 mm 2 m/s 722 mmHg 97%
    04:00 +23°C° 0.7 mm 2 m/s 722 mmHg 97%
    05:00 +24°C° 0 mm 1 m/s 722 mmHg 96%
    06:00 +24°C° 0 mm 1 m/s 723 mmHg 94%
    07:00 +23°C° 0 mm 0 m/s 723 mmHg 93%
    08:00 +27°C° 0 mm 1 m/s 723 mmHg 85%
    09:00 +29°C° 0 mm 1 m/s 723 mmHg 77%
    10:00 +31°C° 0 mm 1 m/s 723 mmHg 69%
    11:00 +32°C° 0 mm 1 m/s 723 mmHg 66%
    12:00 +32°C° 0 mm 1 m/s 722 mmHg 63%
    13:00 +33°C° 0 mm 1 m/s 721 mmHg 61%
    14:00 +33°C° 0.6 mm 1 m/s 721 mmHg 65%
    15:00 +32°C° 0.6 mm 1 m/s 721 mmHg 69%
    16:00 +30°C° 0.6 mm 0 m/s 720 mmHg 74%
    17:00 +28°C° 0.2 mm 0 m/s 720 mmHg 77%
    18:00 +27°C° 0.2 mm 0 m/s 721 mmHg 81%
    19:00 +25°C° 0.2 mm 0 m/s 721 mmHg 84%
    20:00 +24°C° 0.4 mm 0 m/s 721 mmHg 87%
    21:00 +24°C° 0.4 mm 0 m/s 721 mmHg 90%
    22:00 +23°C° 0.4 mm 0 m/s 722 mmHg 94%
    23:00 +23°C° 0.2 mm 0 m/s 722 mmHg 94%
    Mostrar mais